Time,TemperatureF,DewpointF,PressureIn,WindDirection,WindDirectionDegrees,WindSpeedMPH,WindSpeedGustMPH,Humidity,HourlyPrecipIn,Conditions,Clouds,dailyrainin,SoftwareType,DateUTC
2013-06-26 00:01:00,80.4,72.5,30.02,SW,227,0.0,1.0,77,0.00,,,0.00,meteohub,2013-06-26 04:01:00,
2013-06-26 00:02:00,80.2,72.7,30.02,SW,227,0.0,1.0,78,0.00,,,0.00,meteohub,2013-06-26 04:02:00,
2013-06-26 00:03:00,80.2,72.7,30.02,SW,227,0.0,1.0,78,0.00,,,0.00,meteohub,2013-06-26 04:03:00,
2013-06-26 00:04:00,80.2,72.7,30.02,SW,227,0.0,1.0,78,0.00,,,0.00,meteohub,2013-06-26 04:04:00,
2013-06-26 00:09:00,80.1,72.5,30.02,SW,227,0.0,1.0,78,0.00,,,0.00,meteohub,2013-06-26 04:09:00,
2013-06-26 00:14:00,79.9,72.9,30.01,SW,227,0.0,1.0,79,0.00,,,0.00,meteohub,2013-06-26 04:14:00,
2013-06-26 00:19:00,79.5,72.5,30.01,SW,227,0.0,1.0,79,0.00,,,0.00,meteohub,2013-06-26 04:19:00,
2013-06-26 00:24:00,79.3,72.7,30.02,SW,227,0.0,1.0,80,0.00,,,0.00,meteohub,2013-06-26 04:24:00,
2013-06-26 00:29:00,79.2,72.5,30.01,SW,230,0.0,1.0,80,0.00,,,0.00,meteohub,2013-06-26 04:29:00,
2013-06-26 00:35:00,79.0,72.7,30.01,SW,230,0.0,2.0,81,0.00,,,0.00,meteohub,2013-06-26 04:35:00,
2013-06-26 00:40:00,78.8,72.9,30.01,SW,230,0.0,2.0,82,0.00,,,0.00,meteohub,2013-06-26 04:40:00,
2013-06-26 00:45:00,78.6,72.7,30.02,SW,230,0.0,2.0,82,0.00,,,0.00,meteohub,2013-06-26 04:45:00,
2013-06-26 00:50:00,78.6,73.0,30.02,SW,230,0.0,0.0,83,0.00,,,0.00,meteohub,2013-06-26 04:50:00,
2013-06-26 00:55:00,78.4,72.9,30.01,SW,230,0.0,1.0,83,0.00,,,0.00,meteohub,2013-06-26 04:55:00,
2013-06-26 01:00:00,78.3,72.7,30.02,SW,230,0.0,1.0,83,0.00,,,0.00,meteohub,2013-06-26 05:00:00,
2013-06-26 01:05:00,77.9,72.7,30.02,SW,230,0.0,0.0,84,0.00,,,0.00,meteohub,2013-06-26 05:05:00,
2013-06-26 01:10:00,77.7,72.9,30.02,SW,230,0.0,0.0,85,0.00,,,0.00,meteohub,2013-06-26 05:10:00,
2013-06-26 01:15:00,77.5,72.7,30.02,SW,230,0.0,0.0,85,0.00,,,0.00,meteohub,2013-06-26 05:15:00,
2013-06-26 01:20:00,77.5,72.7,30.01,SW,230,0.0,0.0,85,0.00,,,0.00,meteohub,2013-06-26 05:20:00,
2013-06-26 01:25:00,77.5,73.0,30.01,SW,230,0.0,0.0,86,0.00,,,0.00,meteohub,2013-06-26 05:25:00,
2013-06-26 01:30:00,77.4,72.9,30.01,SW,230,0.0,0.0,86,0.00,,,0.00,meteohub,2013-06-26 05:30:00,
2013-06-26 01:35:00,77.4,72.9,30.01,SW,230,0.0,0.0,86,0.00,,,0.00,meteohub,2013-06-26 05:35:00,
2013-06-26 01:40:00,77.5,73.0,30.01,SW,230,0.0,0.0,86,0.00,,,0.00,meteohub,2013-06-26 05:40:00,
2013-06-26 01:45:00,77.5,73.0,30.01,SW,230,0.0,0.0,86,0.00,,,0.00,meteohub,2013-06-26 05:45:00,
2013-06-26 01:51:00,77.5,73.0,30.00,SW,230,0.0,0.0,86,0.00,,,0.00,meteohub,2013-06-26 05:51:00,
2013-06-26 01:56:00,77.4,72.9,30.00,SW,230,0.0,0.0,86,0.00,,,0.00,meteohub,2013-06-26 05:56:00,
2013-06-26 02:01:00,77.4,72.9,30.00,SW,230,0.0,0.0,86,0.00,,,0.00,meteohub,2013-06-26 06:01:00,
2013-06-26 02:06:00,77.2,72.7,30.00,SW,230,0.0,0.0,86,0.00,,,0.00,meteohub,2013-06-26 06:06:00,
2013-06-26 02:11:00,77.2,73.0,30.00,SW,230,0.0,1.0,87,0.00,,,0.00,meteohub,2013-06-26 06:11:00,
2013-06-26 02:16:00,77.2,73.0,30.00,SW,230,0.0,1.0,87,0.00,,,0.00,meteohub,2013-06-26 06:16:00,
2013-06-26 02:21:00,77.2,73.0,30.00,SW,230,0.0,0.0,87,0.00,,,0.00,meteohub,2013-06-26 06:21:00,
2013-06-26 02:26:00,77.2,73.0,30.00,SW,230,0.0,0.0,87,0.00,,,0.00,meteohub,2013-06-26 06:26:00,
2013-06-26 02:31:00,77.2,73.0,30.01,SW,230,0.0,0.0,87,0.00,,,0.00,meteohub,2013-06-26 06:31:00,
2013-06-26 02:36:00,77.2,73.0,30.00,SW,230,0.0,0.0,87,0.00,,,0.00,meteohub,2013-06-26 06:36:00,
2013-06-26 02:41:00,77.0,72.9,30.00,SW,230,0.0,0.0,87,0.00,,,0.00,meteohub,2013-06-26 06:41:00,
2013-06-26 02:46:00,76.8,72.7,30.00,SW,230,0.0,0.0,87,0.00,,,0.00,meteohub,2013-06-26 06:46:00,
2013-06-26 02:51:00,76.8,72.7,30.00,SW,230,0.0,1.0,87,0.00,,,0.00,meteohub,2013-06-26 06:51:00,
2013-06-26 02:56:00,76.6,72.9,29.99,SW,230,0.0,1.0,88,0.00,,,0.00,meteohub,2013-06-26 06:56:00,
2013-06-26 03:01:00,76.6,72.9,29.99,SW,230,0.0,1.0,88,0.00,,,0.00,meteohub,2013-06-26 07:01:00,
2013-06-26 03:06:00,76.5,72.7,29.99,SW,230,0.0,0.0,88,0.00,,,0.00,meteohub,2013-06-26 07:06:00,
2013-06-26 03:11:00,76.5,72.7,29.99,SW,230,0.0,0.0,88,0.00,,,0.00,meteohub,2013-06-26 07:11:00,
2013-06-26 03:16:00,76.3,72.5,29.99,SW,230,0.0,0.0,88,0.00,,,0.00,meteohub,2013-06-26 07:16:00,
2013-06-26 03:21:00,76.3,72.9,29.99,SW,230,0.0,0.0,89,0.00,,,0.00,meteohub,2013-06-26 07:21:00,
2013-06-26 03:27:00,76.3,72.9,29.99,SW,230,0.0,0.0,89,0.00,,,0.00,meteohub,2013-06-26 07:27:00,
2013-06-26 03:32:00,76.3,72.9,29.99,SW,230,0.0,0.0,89,0.00,,,0.00,meteohub,2013-06-26 07:32:00,
2013-06-26 03:37:00,76.3,72.9,29.99,SW,230,0.0,0.0,89,0.00,,,0.00,meteohub,2013-06-26 07:37:00,
2013-06-26 03:42:00,76.1,72.7,29.99,SW,230,0.0,0.0,89,0.00,,,0.00,meteohub,2013-06-26 07:42:00,
2013-06-26 03:47:00,76.1,72.7,29.99,SW,230,0.0,0.0,89,0.00,,,0.00,meteohub,2013-06-26 07:47:00,
2013-06-26 03:52:00,76.1,72.7,29.99,SW,230,0.0,0.0,89,0.00,,,0.00,meteohub,2013-06-26 07:52:00,
2013-06-26 03:57:00,76.1,72.7,29.99,SW,230,0.0,0.0,89,0.00,,,0.00,meteohub,2013-06-26 07:57:00,
2013-06-26 04:02:00,76.1,72.7,29.99,SW,230,0.0,0.0,89,0.00,,,0.00,meteohub,2013-06-26 08:02:00,
2013-06-26 04:07:00,76.1,72.7,29.98,SW,230,0.0,0.0,89,0.00,,,0.00,meteohub,2013-06-26 08:07:00,
2013-06-26 04:12:00,76.1,72.7,29.98,SW,230,0.0,0.0,89,0.00,,,0.00,meteohub,2013-06-26 08:12:00,
2013-06-26 04:17:00,75.9,72.5,29.98,SW,230,0.0,0.0,89,0.00,,,0.00,meteohub,2013-06-26 08:17:00,
2013-06-26 04:22:00,76.1,72.7,29.98,SW,230,0.0,0.0,89,0.00,,,0.00,meteohub,2013-06-26 08:22:00,
2013-06-26 04:27:00,76.1,72.9,29.98,SW,230,0.0,0.0,90,0.00,,,0.00,meteohub,2013-06-26 08:27:00,
2013-06-26 04:32:00,75.9,72.9,29.98,SW,230,0.0,0.0,90,0.00,,,0.00,meteohub,2013-06-26 08:32:00,
2013-06-26 04:37:00,75.9,72.9,29.98,SW,230,0.0,0.0,90,0.00,,,0.00,meteohub,2013-06-26 08:37:00,
2013-06-26 04:42:00,75.7,72.7,29.98,SW,230,0.0,0.0,90,0.00,,,0.00,meteohub,2013-06-26 08:42:00,
2013-06-26 04:47:00,75.7,72.7,29.98,SW,230,0.0,0.0,90,0.00,,,0.00,meteohub,2013-06-26 08:47:00,
2013-06-26 04:52:00,75.6,72.5,29.99,SW,230,0.0,0.0,90,0.00,,,0.00,meteohub,2013-06-26 08:52:00,
2013-06-26 04:57:00,75.6,72.7,29.99,SW,230,0.0,0.0,91,0.00,,,0.00,meteohub,2013-06-26 08:57:00,
2013-06-26 05:02:00,75.6,72.7,29.99,SW,230,0.0,0.0,91,0.00,,,0.00,meteohub,2013-06-26 09:02:00,
2013-06-26 05:07:00,75.6,72.7,29.99,SW,230,0.0,0.0,91,0.00,,,0.00,meteohub,2013-06-26 09:07:00,
2013-06-26 05:12:00,75.6,72.5,29.99,SW,230,0.0,0.0,90,0.00,,,0.00,meteohub,2013-06-26 09:12:00,
2013-06-26 05:17:00,75.6,72.7,29.99,SW,230,0.0,0.0,91,0.00,,,0.00,meteohub,2013-06-26 09:17:00,
2013-06-26 05:22:00,75.4,72.3,29.99,SW,230,0.0,0.0,90,0.00,,,0.00,meteohub,2013-06-26 09:22:00,
2013-06-26 05:27:00,75.0,72.1,29.99,SW,230,0.0,0.0,91,0.00,,,0.00,meteohub,2013-06-26 09:27:00,
2013-06-26 05:32:00,75.0,72.1,29.99,SW,230,0.0,0.0,91,0.00,,,0.00,meteohub,2013-06-26 09:32:00,
2013-06-26 05:37:00,75.0,72.1,29.99,SW,230,0.0,0.0,91,0.00,,,0.00,meteohub,2013-06-26 09:37:00,
2013-06-26 05:42:00,74.8,72.0,29.99,SW,230,0.0,0.0,91,0.00,,,0.00,meteohub,2013-06-26 09:42:00,
2013-06-26 05:47:00,74.8,72.0,29.99,SW,230,0.0,0.0,91,0.00,,,0.00,meteohub,2013-06-26 09:47:00,
2013-06-26 05:52:00,74.7,71.8,29.99,SW,230,0.0,0.0,91,0.00,,,0.00,meteohub,2013-06-26 09:52:00,
2013-06-26 05:57:00,74.7,72.1,29.99,SW,230,0.0,0.0,92,0.00,,,0.00,meteohub,2013-06-26 09:57:00,
2013-06-26 06:02:00,74.7,72.1,29.99,SW,230,0.0,0.0,92,0.00,,,0.00,meteohub,2013-06-26 10:02:00,
2013-06-26 06:07:00,74.7,72.1,29.99,SW,230,0.0,0.0,92,0.00,,,0.00,meteohub,2013-06-26 10:07:00,
2013-06-26 06:12:00,74.7,72.1,30.00,SW,230,0.0,0.0,92,0.00,,,0.00,meteohub,2013-06-26 10:12:00,
2013-06-26 06:17:00,74.7,72.1,30.00,SW,230,0.0,0.0,92,0.00,,,0.00,meteohub,2013-06-26 10:17:00,
2013-06-26 06:22:00,74.7,72.1,30.00,SW,230,0.0,0.0,92,0.00,,,0.00,meteohub,2013-06-26 10:22:00,
2013-06-26 06:27:00,74.5,72.0,30.00,SW,230,0.0,0.0,92,0.00,,,0.00,meteohub,2013-06-26 10:27:00,
2013-06-26 06:32:00,74.5,72.0,30.00,SW,230,0.0,0.0,92,0.00,,,0.00,meteohub,2013-06-26 10:32:00,
2013-06-26 06:37:00,74.5,72.0,30.00,SW,230,0.0,0.0,92,0.00,,,0.00,meteohub,2013-06-26 10:37:00,
2013-06-26 06:42:00,74.5,72.0,30.00,SW,230,0.0,0.0,92,0.00,,,0.00,meteohub,2013-06-26 10:42:00,
2013-06-26 06:47:00,74.3,71.8,30.00,SW,230,0.0,0.0,92,0.00,,,0.00,meteohub,2013-06-26 10:47:00,
2013-06-26 06:52:00,74.3,71.8,30.00,SW,230,0.0,0.0,92,0.00,,,0.00,meteohub,2013-06-26 10:52:00,
2013-06-26 06:57:00,74.1,71.6,30.00,SW,230,0.0,0.0,92,0.00,,,0.00,meteohub,2013-06-26 10:57:00,
2013-06-26 07:02:00,74.1,71.6,30.00,SW,230,0.0,0.0,92,0.00,,,0.00,meteohub,2013-06-26 11:02:00,
2013-06-26 07:07:00,74.1,71.6,30.01,SW,230,0.0,0.0,92,0.00,,,0.00,meteohub,2013-06-26 11:07:00,
2013-06-26 07:12:00,74.1,72.0,30.00,SW,230,0.0,0.0,93,0.00,,,0.00,meteohub,2013-06-26 11:12:00,
2013-06-26 07:17:00,74.1,72.0,30.01,SW,230,0.0,0.0,93,0.00,,,0.00,meteohub,2013-06-26 11:17:00,
2013-06-26 07:22:00,74.3,72.1,30.01,SW,230,0.0,0.0,93,0.00,,,0.00,meteohub,2013-06-26 11:22:00,
2013-06-26 07:27:00,74.5,72.3,30.01,SW,230,0.0,0.0,93,0.00,,,0.00,meteohub,2013-06-26 11:27:00,
2013-06-26 07:32:00,74.5,72.3,30.01,SW,230,0.0,0.0,93,0.00,,,0.00,meteohub,2013-06-26 11:32:00,
2013-06-26 07:37:00,74.7,72.5,30.01,SW,230,0.0,0.0,93,0.00,,,0.00,meteohub,2013-06-26 11:37:00,
2013-06-26 07:42:00,74.8,72.7,30.02,SW,230,0.0,0.0,93,0.00,,,0.00,meteohub,2013-06-26 11:42:00,
2013-06-26 07:47:00,74.8,72.7,30.02,SW,230,0.0,0.0,93,0.00,,,0.00,meteohub,2013-06-26 11:47:00,
2013-06-26 07:52:00,75.0,72.9,30.02,SW,230,0.0,0.0,93,0.00,,,0.00,meteohub,2013-06-26 11:52:00,
2013-06-26 07:57:00,75.4,73.2,30.02,SW,230,0.0,0.0,93,0.00,,,0.00,meteohub,2013-06-26 11:57:00,
2013-06-26 08:02:00,75.7,73.2,30.02,SW,230,0.0,1.0,92,0.00,,,0.00,meteohub,2013-06-26 12:02:00,
2013-06-26 08:07:00,75.9,73.4,30.02,SW,230,0.0,1.0,92,0.00,,,0.00,meteohub,2013-06-26 12:07:00,
2013-06-26 08:12:00,76.5,73.6,30.02,SW,230,0.0,2.0,91,0.00,,,0.00,meteohub,2013-06-26 12:12:00,
2013-06-26 08:17:00,76.6,73.4,30.03,SW,230,0.0,2.0,90,0.00,,,0.00,meteohub,2013-06-26 12:17:00,
2013-06-26 08:22:00,77.2,73.9,30.02,SW,230,0.0,2.0,90,0.00,,,0.00,meteohub,2013-06-26 12:22:00,
2013-06-26 08:27:00,77.7,74.5,30.03,SW,230,0.0,2.0,90,0.00,,,0.00,meteohub,2013-06-26 12:27:00,
2013-06-26 08:32:00,78.3,74.5,30.03,SW,229,0.0,1.0,88,0.00,,,0.00,meteohub,2013-06-26 12:32:00,
2013-06-26 08:37:00,78.6,74.8,30.02,SW,229,0.0,2.0,88,0.00,,,0.00,meteohub,2013-06-26 12:37:00,
2013-06-26 08:42:00,79.2,75.0,30.03,SW,229,0.0,2.0,87,0.00,,,0.00,meteohub,2013-06-26 12:42:00,
2013-06-26 08:47:00,79.3,74.8,30.03,SW,229,0.0,2.0,86,0.00,,,0.00,meteohub,2013-06-26 12:47:00,
2013-06-26 08:52:00,79.7,75.2,30.03,SW,229,0.0,2.0,86,0.00,,,0.00,meteohub,2013-06-26 12:52:00,
2013-06-26 08:57:00,80.1,75.6,30.03,SW,229,0.0,2.0,86,0.00,,,0.00,meteohub,2013-06-26 12:57:00,
2013-06-26 09:02:00,80.6,75.7,30.03,SW,229,0.0,0.0,85,0.00,,,0.00,meteohub,2013-06-26 13:02:00,
2013-06-26 09:07:00,81.1,75.9,30.04,SW,229,0.0,2.0,84,0.00,,,0.00,meteohub,2013-06-26 13:07:00,
2013-06-26 09:12:00,81.9,76.5,30.04,SW,229,0.0,2.0,84,0.00,,,0.00,meteohub,2013-06-26 13:12:00,
2013-06-26 09:17:00,82.8,76.6,30.04,SW,229,0.0,2.0,82,0.00,,,0.00,meteohub,2013-06-26 13:17:00,
2013-06-26 09:22:00,83.7,77.2,30.04,SW,229,0.0,1.0,81,0.00,,,0.00,meteohub,2013-06-26 13:22:00,
2013-06-26 09:27:00,84.2,76.6,30.04,West,273,0.0,1.0,78,0.00,,,0.00,meteohub,2013-06-26 13:27:00,
2013-06-26 09:32:00,84.6,77.0,30.04,West,273,0.0,4.0,78,0.00,,,0.00,meteohub,2013-06-26 13:32:00,
2013-06-26 09:37:00,84.4,76.8,30.04,WSW,241,0.0,4.0,78,0.00,,,0.00,meteohub,2013-06-26 13:37:00,
2013-06-26 09:42:00,84.4,76.8,30.04,South,173,0.0,4.0,78,0.00,,,0.00,meteohub,2013-06-26 13:42:00,
2013-06-26 09:47:00,84.9,77.4,30.04,South,173,0.0,1.0,78,0.00,,,0.00,meteohub,2013-06-26 13:47:00,
2013-06-26 09:52:00,85.5,77.7,30.04,West,271,0.0,1.0,78,0.00,,,0.00,meteohub,2013-06-26 13:52:00,
2013-06-26 09:57:00,86.0,77.5,30.04,West,267,0.0,0.0,76,0.00,,,0.00,meteohub,2013-06-26 13:57:00,
2013-06-26 10:02:00,86.4,77.5,30.04,SE,136,0.0,1.0,75,0.00,,,0.00,meteohub,2013-06-26 14:02:00,
2013-06-26 10:07:00,86.4,77.5,30.04,SSW,195,0.0,1.0,75,0.00,,,0.00,meteohub,2013-06-26 14:07:00,
2013-06-26 10:12:00,85.8,77.7,30.05,SSW,196,0.0,5.0,77,0.00,,,0.00,meteohub,2013-06-26 14:12:00,
2013-06-26 10:17:00,85.8,77.7,30.05,South,183,0.0,7.0,77,0.00,,,0.00,meteohub,2013-06-26 14:17:00,
2013-06-26 10:22:00,86.4,78.3,30.04,SW,226,0.0,7.0,77,0.00,,,0.00,meteohub,2013-06-26 14:22:00,
2013-06-26 10:27:00,86.9,78.4,30.04,SW,234,0.0,3.0,76,0.00,,,0.00,meteohub,2013-06-26 14:27:00,
2013-06-26 10:32:00,87.3,77.9,30.04,SSE,167,0.0,3.0,74,0.00,,,0.00,meteohub,2013-06-26 14:32:00,
2013-06-26 10:37:00,86.9,77.2,30.04,SSW,198,0.0,3.0,73,0.00,,,0.00,meteohub,2013-06-26 14:37:00,
2013-06-26 10:42:00,86.5,78.1,30.05,South,174,0.0,7.0,76,0.00,,,0.00,meteohub,2013-06-26 14:42:00,
2013-06-26 10:47:00,87.1,77.7,30.05,West,269,0.0,7.0,74,0.00,,,0.00,meteohub,2013-06-26 14:47:00,
2013-06-26 10:52:00,87.6,77.5,30.05,North,355,0.0,7.0,72,0.00,,,0.00,meteohub,2013-06-26 14:52:00,
2013-06-26 10:57:00,88.3,78.1,30.05,NNW,328,0.0,1.0,72,0.00,,,0.00,meteohub,2013-06-26 14:57:00,
2013-06-26 11:02:00,89.1,78.1,30.05,WNW,290,0.0,1.0,70,0.00,,,0.00,meteohub,2013-06-26 15:02:00,
2013-06-26 11:07:00,89.4,77.9,30.05,NW,323,0.0,1.0,69,0.00,,,0.00,meteohub,2013-06-26 15:07:00,
2013-06-26 11:12:00,90.1,78.1,30.05,North,349,1.0,1.0,68,0.00,,,0.00,meteohub,2013-06-26 15:12:00,
2013-06-26 11:18:00,90.7,77.7,30.05,West,263,0.0,8.0,66,0.00,,,0.00,meteohub,2013-06-26 15:18:00,
2013-06-26 11:23:00,90.7,76.3,30.05,SSW,198,0.0,8.0,63,0.00,,,0.00,meteohub,2013-06-26 15:23:00,
2013-06-26 11:28:00,90.1,77.2,30.04,West,259,0.0,8.0,66,0.00,,,0.00,meteohub,2013-06-26 15:28:00,
2013-06-26 11:33:00,90.0,77.0,30.04,South,184,0.0,1.0,66,0.00,,,0.00,meteohub,2013-06-26 15:33:00,
2013-06-26 11:38:00,90.0,76.6,30.05,SW,220,0.0,6.0,65,0.00,,,0.00,meteohub,2013-06-26 15:38:00,
2013-06-26 11:43:00,90.0,76.6,30.05,SSW,206,4.0,6.0,65,0.00,,,0.00,meteohub,2013-06-26 15:43:00,
2013-06-26 11:48:00,89.8,77.4,30.05,NW,307,0.0,9.0,67,0.00,,,0.00,meteohub,2013-06-26 15:48:00,
2013-06-26 11:53:00,89.8,76.8,30.05,SSW,194,0.0,9.0,66,0.00,,,0.00,meteohub,2013-06-26 15:53:00,
2013-06-26 11:58:00,89.2,76.5,30.05,SW,217,0.0,9.0,66,0.00,,,0.00,meteohub,2013-06-26 15:58:00,
2013-06-26 12:03:00,89.2,76.5,30.05,SE,144,0.0,8.0,66,0.00,,,0.00,meteohub,2013-06-26 16:03:00,
2013-06-26 12:08:00,90.0,76.6,30.04,North,355,0.0,3.0,65,0.00,,,0.00,meteohub,2013-06-26 16:08:00,
2013-06-26 12:13:00,90.9,76.5,30.05,South,169,0.0,4.0,63,0.00,,,0.00,meteohub,2013-06-26 16:13:00,
2013-06-26 12:18:00,91.2,76.8,30.04,WNW,292,0.0,4.0,63,0.00,,,0.00,meteohub,2013-06-26 16:18:00,
2013-06-26 12:23:00,91.8,75.9,30.05,WSW,254,0.0,4.0,60,0.00,,,0.00,meteohub,2013-06-26 16:23:00,
2013-06-26 12:28:00,91.2,76.3,30.05,SSW,200,0.0,10.0,62,0.00,,,0.00,meteohub,2013-06-26 16:28:00,
2013-06-26 12:33:00,90.9,76.5,30.05,NNW,331,0.0,10.0,63,0.00,,,0.00,meteohub,2013-06-26 16:33:00,
2013-06-26 12:38:00,91.2,76.3,30.05,North,355,0.0,10.0,62,0.00,,,0.00,meteohub,2013-06-26 16:38:00,
2013-06-26 12:43:00,91.6,76.3,30.05,SSW,204,0.0,8.0,61,0.00,,,0.00,meteohub,2013-06-26 16:43:00,
2013-06-26 12:48:00,91.0,76.3,30.05,WNW,292,0.0,8.0,62,0.00,,,0.00,meteohub,2013-06-26 16:48:00,
2013-06-26 12:54:00,91.0,75.7,30.04,West,268,0.0,8.0,61,0.00,,,0.00,meteohub,2013-06-26 16:54:00,
2013-06-26 12:59:00,90.9,76.1,30.04,WSW,239,0.0,1.0,62,0.00,,,0.00,meteohub,2013-06-26 16:59:00,
2013-06-26 13:04:00,90.9,76.5,30.05,WNW,290,0.0,1.0,63,0.00,,,0.00,meteohub,2013-06-26 17:04:00,
2013-06-26 13:09:00,91.6,76.3,30.04,West,273,0.0,4.0,61,0.00,,,0.00,meteohub,2013-06-26 17:09:00,
2013-06-26 13:14:00,92.7,77.2,30.04,WNW,286,0.0,4.0,61,0.00,,,0.00,meteohub,2013-06-26 17:14:00,
2013-06-26 13:19:00,93.6,77.0,30.04,WNW,300,0.0,4.0,59,0.00,,,0.00,meteohub,2013-06-26 17:19:00,
2013-06-26 13:24:00,93.6,76.6,30.04,SSW,200,0.0,2.0,58,0.00,,,0.00,meteohub,2013-06-26 17:24:00,
2013-06-26 13:29:00,93.6,75.6,30.04,South,187,0.0,8.0,56,0.00,,,0.00,meteohub,2013-06-26 17:29:00,
2013-06-26 13:34:00,93.0,75.6,30.04,SW,215,0.0,8.0,57,0.00,,,0.00,meteohub,2013-06-26 17:34:00,
2013-06-26 13:39:00,92.5,75.6,30.04,SSW,204,1.0,8.0,58,0.00,,,0.00,meteohub,2013-06-26 17:39:00,
2013-06-26 13:44:00,91.9,76.1,30.04,NW,309,0.0,7.0,60,0.00,,,0.00,meteohub,2013-06-26 17:44:00,
2013-06-26 13:49:00,92.5,76.6,30.04,NNW,346,0.0,7.0,60,0.00,,,0.00,meteohub,2013-06-26 17:49:00,
2013-06-26 13:54:00,93.0,76.1,30.04,NNW,336,0.0,7.0,58,0.00,,,0.00,meteohub,2013-06-26 17:54:00,
2013-06-26 14:00:00,93.6,76.1,30.04,WSW,248,0.0,6.0,57,0.00,,,0.00,meteohub,2013-06-26 18:00:00,
2013-06-26 14:05:00,94.1,75.9,30.03,WNW,286,0.0,5.0,56,0.00,,,0.00,meteohub,2013-06-26 18:05:00,
2013-06-26 14:10:00,94.1,75.4,30.03,SSW,209,0.0,1.0,55,0.00,,,0.00,meteohub,2013-06-26 18:10:00,
2013-06-26 14:15:00,93.6,75.6,30.03,SSW,205,4.0,6.0,56,0.00,,,0.00,meteohub,2013-06-26 18:15:00,
2013-06-26 14:20:00,92.8,76.5,30.03,SW,229,0.0,6.0,59,0.00,,,0.00,meteohub,2013-06-26 18:20:00,
2013-06-26 14:25:00,92.8,76.5,30.03,SSE,164,0.0,6.0,59,0.00,,,0.00,meteohub,2013-06-26 18:25:00,
2013-06-26 14:30:00,93.4,75.4,30.02,WSW,247,0.0,6.0,56,0.00,,,0.00,meteohub,2013-06-26 18:30:00,
2013-06-26 14:35:00,93.7,76.3,30.02,NNW,338,0.0,6.0,57,0.00,,,0.00,meteohub,2013-06-26 18:35:00,
2013-06-26 14:40:00,93.9,74.1,30.02,SSW,209,5.0,6.0,53,0.00,,,0.00,meteohub,2013-06-26 18:40:00,
2013-06-26 14:45:00,93.4,74.8,30.02,SSW,201,0.0,8.0,55,0.00,,,0.00,meteohub,2013-06-26 18:45:00,
2013-06-26 14:50:00,93.6,74.5,30.02,SW,225,0.0,8.0,54,0.00,,,0.00,meteohub,2013-06-26 18:50:00,
2013-06-26 14:55:00,93.6,74.5,30.01,SSW,192,0.0,8.0,54,0.00,,,0.00,meteohub,2013-06-26 18:55:00,
2013-06-26 15:00:00,94.5,75.2,30.01,West,278,0.0,7.0,54,0.00,,,0.00,meteohub,2013-06-26 19:00:00,
2013-06-26 15:05:00,95.2,75.4,30.01,NNW,346,2.0,5.0,53,0.00,,,0.00,meteohub,2013-06-26 19:05:00,
2013-06-26 15:10:00,95.2,74.8,30.01,SW,222,0.0,5.0,52,0.00,,,0.00,meteohub,2013-06-26 19:10:00,
2013-06-26 15:15:00,94.8,75.0,30.01,SSW,197,5.0,5.0,53,0.00,,,0.00,meteohub,2013-06-26 19:15:00,
2013-06-26 15:21:00,95.2,74.1,30.01,NNE,13,0.0,8.0,51,0.00,,,0.00,meteohub,2013-06-26 19:21:00,
2013-06-26 15:26:00,95.7,74.7,30.01,West,266,0.0,8.0,51,0.00,,,0.00,meteohub,2013-06-26 19:26:00,
2013-06-26 15:31:00,96.4,74.8,30.00,NW,316,0.0,8.0,50,0.00,,,0.00,meteohub,2013-06-26 19:31:00,
2013-06-26 15:36:00,97.2,75.4,30.00,SW,224,0.0,6.0,50,0.00,,,0.00,meteohub,2013-06-26 19:36:00,
2013-06-26 15:41:00,96.4,75.4,30.00,SSW,209,0.0,6.0,51,0.00,,,0.00,meteohub,2013-06-26 19:41:00,
2013-06-26 15:46:00,96.4,75.9,30.00,NW,322,0.0,6.0,52,0.00,,,0.00,meteohub,2013-06-26 19:46:00,
2013-06-26 15:51:00,96.4,74.8,29.99,West,271,0.0,5.0,50,0.00,,,0.00,meteohub,2013-06-26 19:51:00,
2013-06-26 15:56:00,96.3,74.7,30.00,SW,227,0.0,5.0,50,0.00,,,0.00,meteohub,2013-06-26 19:56:00,
2013-06-26 16:01:00,96.4,75.4,29.99,NW,325,0.0,4.0,51,0.00,,,0.00,meteohub,2013-06-26 20:01:00,
2013-06-26 16:06:00,96.8,76.3,29.99,North,0,1.0,5.0,52,0.00,,,0.00,meteohub,2013-06-26 20:06:00,
2013-06-26 16:11:00,96.8,75.0,29.99,WSW,240,0.0,9.0,50,0.00,,,0.00,meteohub,2013-06-26 20:11:00,
2013-06-26 16:16:00,96.1,75.0,29.99,SSW,209,2.0,9.0,51,0.00,,,0.00,meteohub,2013-06-26 20:16:00,
2013-06-26 16:21:00,95.4,75.0,29.99,SW,219,6.0,9.0,52,0.00,,,0.00,meteohub,2013-06-26 20:21:00,
2013-06-26 16:26:00,94.6,74.3,29.99,WSW,247,0.0,7.0,52,0.00,,,0.00,meteohub,2013-06-26 20:26:00,
2013-06-26 16:32:00,94.5,73.6,29.98,South,180,2.0,7.0,51,0.00,,,0.00,meteohub,2013-06-26 20:32:00,
2013-06-26 16:37:00,94.5,73.6,29.98,WNW,294,0.0,8.0,51,0.00,,,0.00,meteohub,2013-06-26 20:37:00,
2013-06-26 16:42:00,94.6,74.3,29.98,SSW,212,0.0,8.0,52,0.00,,,0.00,meteohub,2013-06-26 20:42:00,
2013-06-26 16:47:00,94.5,73.6,29.98,SSW,200,4.0,8.0,51,0.00,,,0.00,meteohub,2013-06-26 20:47:00,
2013-06-26 16:52:00,93.6,73.2,29.98,SSW,212,3.0,7.0,52,0.00,,,0.00,meteohub,2013-06-26 20:52:00,
2013-06-26 16:57:00,93.9,73.6,29.98,SW,231,0.0,8.0,52,0.00,,,0.00,meteohub,2013-06-26 20:57:00,
2013-06-26 17:02:00,94.6,74.3,29.98,WNW,300,0.0,8.0,52,0.00,,,0.00,meteohub,2013-06-26 21:02:00,
2013-06-26 17:07:00,95.4,73.8,29.98,SSW,198,1.0,8.0,50,0.00,,,0.00,meteohub,2013-06-26 21:07:00,
2013-06-26 17:12:00,94.6,74.3,29.97,SSE,158,5.0,8.0,52,0.00,,,0.00,meteohub,2013-06-26 21:12:00,
2013-06-26 17:17:00,94.1,73.2,29.97,SSW,209,0.0,8.0,51,0.00,,,0.00,meteohub,2013-06-26 21:17:00,
2013-06-26 17:22:00,93.4,72.5,29.97,SSW,213,0.0,10.0,51,0.00,,,0.00,meteohub,2013-06-26 21:22:00,
2013-06-26 17:27:00,93.4,73.8,29.97,SSW,213,5.0,10.0,53,0.00,,,0.00,meteohub,2013-06-26 21:27:00,
2013-06-26 17:32:00,92.8,73.8,29.97,South,184,0.0,8.0,54,0.00,,,0.00,meteohub,2013-06-26 21:32:00,
2013-06-26 17:37:00,93.4,75.4,29.97,South,189,1.0,8.0,56,0.00,,,0.00,meteohub,2013-06-26 21:37:00,
2013-06-26 17:42:00,93.7,75.2,29.97,SE,141,0.0,8.0,55,0.00,,,0.00,meteohub,2013-06-26 21:42:00,
2013-06-26 17:47:00,94.5,75.2,29.96,SSW,213,0.0,7.0,54,0.00,,,0.00,meteohub,2013-06-26 21:47:00,
2013-06-26 17:52:00,95.4,75.0,29.96,NW,322,0.0,5.0,52,0.00,,,0.00,meteohub,2013-06-26 21:52:00,
2013-06-26 17:57:00,96.3,75.7,29.96,WNW,302,0.0,5.0,52,0.00,,,0.00,meteohub,2013-06-26 21:57:00,
2013-06-26 18:02:00,97.0,75.9,29.96,NW,313,0.0,5.0,51,0.00,,,0.00,meteohub,2013-06-26 22:02:00,
2013-06-26 18:07:00,97.2,75.4,29.96,North,355,0.0,1.0,50,0.00,,,0.00,meteohub,2013-06-26 22:07:00,
2013-06-26 18:12:00,97.2,75.9,29.96,SSW,204,3.0,3.0,51,0.00,,,0.00,meteohub,2013-06-26 22:12:00,
2013-06-26 18:17:00,96.1,75.6,29.96,SSW,204,0.0,5.0,52,0.00,,,0.00,meteohub,2013-06-26 22:17:00,
2013-06-26 18:22:00,95.9,75.4,29.96,SW,215,0.0,5.0,52,0.00,,,0.00,meteohub,2013-06-26 22:22:00,
2013-06-26 18:27:00,95.4,75.0,29.95,SSW,195,2.0,5.0,52,0.00,,,0.00,meteohub,2013-06-26 22:27:00,
2013-06-26 18:33:00,95.2,75.4,29.95,NW,313,0.0,6.0,53,0.00,,,0.00,meteohub,2013-06-26 22:33:00,
2013-06-26 18:38:00,95.7,75.9,29.95,NW,318,0.0,6.0,53,0.00,,,0.00,meteohub,2013-06-26 22:38:00,
2013-06-26 18:43:00,95.7,76.5,29.95,NW,317,0.0,6.0,54,0.00,,,0.00,meteohub,2013-06-26 22:43:00,
2013-06-26 18:48:00,95.5,76.3,29.95,North,355,0.0,2.0,54,0.00,,,0.00,meteohub,2013-06-26 22:48:00,
2013-06-26 18:53:00,95.9,75.9,29.95,NW,325,0.0,5.0,53,0.00,,,0.00,meteohub,2013-06-26 22:53:00,
2013-06-26 18:58:00,96.3,76.8,29.95,NNW,342,0.0,5.0,54,0.00,,,0.00,meteohub,2013-06-26 22:58:00,
2013-06-26 19:03:00,96.4,75.9,29.94,NNW,342,0.0,5.0,52,0.00,,,0.00,meteohub,2013-06-26 23:03:00,
2013-06-26 19:08:00,95.4,76.1,29.95,SSW,210,0.0,5.0,54,0.00,,,0.00,meteohub,2013-06-26 23:08:00,
2013-06-26 19:13:00,94.8,75.6,29.95,SSW,210,0.0,5.0,54,0.00,,,0.00,meteohub,2013-06-26 23:13:00,
2013-06-26 19:18:00,94.6,75.9,29.94,SSW,212,0.0,5.0,55,0.00,,,0.00,meteohub,2013-06-26 23:18:00,
2013-06-26 19:23:00,94.6,75.9,29.94,SSW,212,0.0,1.0,55,0.00,,,0.00,meteohub,2013-06-26 23:23:00,
2013-06-26 19:28:00,94.8,75.6,29.94,SSW,212,0.0,0.0,54,0.00,,,0.00,meteohub,2013-06-26 23:28:00,
2013-06-26 19:33:00,94.3,75.0,29.94,SSW,212,0.0,0.0,54,0.00,,,0.00,meteohub,2013-06-26 23:33:00,
2013-06-26 19:38:00,93.6,75.6,29.95,SSW,212,0.0,3.0,56,0.00,,,0.00,meteohub,2013-06-26 23:38:00,
2013-06-26 19:43:00,92.8,75.9,29.95,SSW,212,0.0,3.0,58,0.00,,,0.00,meteohub,2013-06-26 23:43:00,
2013-06-26 19:48:00,92.3,75.4,29.94,South,184,0.0,3.0,58,0.00,,,0.00,meteohub,2013-06-26 23:48:00,
2013-06-26 19:53:00,92.5,75.6,29.94,South,184,0.0,1.0,58,0.00,,,0.00,meteohub,2013-06-26 23:53:00,
2013-06-26 19:58:00,92.8,75.4,29.94,SSW,194,0.0,1.0,57,0.00,,,0.00,meteohub,2013-06-26 23:58:00,
2013-06-26 20:04:00,93.2,75.7,29.94,SSW,194,0.0,1.0,57,0.00,,,0.00,meteohub,2013-06-27 00:04:00,
2013-06-26 20:09:00,93.0,76.1,29.94,SSW,194,0.0,0.0,58,0.00,,,0.00,meteohub,2013-06-27 00:09:00,
2013-06-26 20:14:00,92.8,75.9,29.94,SSW,194,0.0,0.0,58,0.00,,,0.00,meteohub,2013-06-27 00:14:00,
2013-06-26 20:19:00,92.5,75.6,29.94,South,186,0.0,0.0,58,0.00,,,0.00,meteohub,2013-06-27 00:19:00,
2013-06-26 20:24:00,92.1,75.7,29.94,South,186,0.0,1.0,59,0.00,,,0.00,meteohub,2013-06-27 00:24:00,
2013-06-26 20:29:00,91.9,75.6,29.94,South,186,0.0,1.0,59,0.00,,,0.00,meteohub,2013-06-27 00:29:00,
2013-06-26 20:34:00,91.8,75.4,29.94,South,186,0.0,0.0,59,0.00,,,0.00,meteohub,2013-06-27 00:34:00,
2013-06-26 20:39:00,91.6,75.7,29.94,South,186,0.0,0.0,60,0.00,,,0.00,meteohub,2013-06-27 00:39:00,
2013-06-26 20:44:00,91.2,75.4,29.94,South,186,0.0,0.0,60,0.00,,,0.00,meteohub,2013-06-27 00:44:00,
2013-06-26 20:49:00,90.9,75.6,29.94,South,186,0.0,0.0,61,0.00,,,0.00,meteohub,2013-06-27 00:49:00,
2013-06-26 20:54:00,90.7,75.9,29.94,South,186,0.0,0.0,62,0.00,,,0.00,meteohub,2013-06-27 00:54:00,
2013-06-26 20:59:00,90.3,75.6,29.94,South,186,0.0,0.0,62,0.00,,,0.00,meteohub,2013-06-27 00:59:00,
2013-06-26 21:04:00,90.1,75.9,29.94,South,186,0.0,0.0,63,0.00,,,0.00,meteohub,2013-06-27 01:04:00,
2013-06-26 21:09:00,89.6,75.7,29.94,South,186,0.0,0.0,64,0.00,,,0.00,meteohub,2013-06-27 01:09:00,
2013-06-26 21:14:00,89.2,75.9,29.94,South,186,0.0,0.0,65,0.00,,,0.00,meteohub,2013-06-27 01:14:00,
2013-06-26 21:19:00,88.9,76.1,29.94,South,186,0.0,0.0,66,0.00,,,0.00,meteohub,2013-06-27 01:19:00,
2013-06-26 21:25:00,88.5,76.1,29.94,South,186,0.0,0.0,67,0.00,,,0.00,meteohub,2013-06-27 01:25:00,
2013-06-26 21:30:00,88.2,75.7,29.94,South,186,0.0,0.0,67,0.00,,,0.00,meteohub,2013-06-27 01:30:00,
2013-06-26 21:35:00,87.6,75.7,29.94,South,186,0.0,0.0,68,0.00,,,0.00,meteohub,2013-06-27 01:35:00,
2013-06-26 21:40:00,87.4,75.9,29.94,South,186,0.0,0.0,69,0.00,,,0.00,meteohub,2013-06-27 01:40:00,
2013-06-26 21:45:00,87.3,75.9,29.94,South,186,0.0,0.0,69,0.00,,,0.00,meteohub,2013-06-27 01:45:00,
2013-06-26 21:50:00,87.1,76.1,29.94,South,186,0.0,0.0,70,0.00,,,0.00,meteohub,2013-06-27 01:50:00,
2013-06-26 21:55:00,86.7,75.7,29.94,South,186,0.0,0.0,70,0.00,,,0.00,meteohub,2013-06-27 01:55:00,
2013-06-26 22:00:00,86.5,75.9,29.94,South,186,0.0,0.0,71,0.00,,,0.00,meteohub,2013-06-27 02:00:00,
2013-06-26 22:05:00,86.4,75.9,29.94,South,186,0.0,0.0,71,0.00,,,0.00,meteohub,2013-06-27 02:05:00,
2013-06-26 22:10:00,86.0,75.6,29.95,South,186,0.0,0.0,71,0.00,,,0.00,meteohub,2013-06-27 02:10:00,
2013-06-26 22:15:00,85.6,75.2,29.96,South,186,0.0,0.0,71,0.00,,,0.00,meteohub,2013-06-27 02:15:00,
2013-06-26 22:20:00,85.3,75.2,29.95,South,186,0.0,1.0,72,0.00,,,0.00,meteohub,2013-06-27 02:20:00,
2013-06-26 22:25:00,84.9,74.8,29.95,South,186,0.0,1.0,72,0.00,,,0.00,meteohub,2013-06-27 02:25:00,
2013-06-26 22:30:00,84.7,74.7,29.96,South,186,0.0,1.0,72,0.00,,,0.00,meteohub,2013-06-27 02:30:00,
2013-06-26 22:35:00,84.6,75.0,29.96,South,186,0.0,0.0,73,0.00,,,0.00,meteohub,2013-06-27 02:35:00,
2013-06-26 22:40:00,84.4,75.2,29.96,South,186,0.0,1.0,74,0.00,,,0.00,meteohub,2013-06-27 02:40:00,
2013-06-26 22:45:00,84.0,75.2,29.96,South,186,0.0,1.0,75,0.00,,,0.00,meteohub,2013-06-27 02:45:00,
2013-06-26 22:51:00,83.8,75.4,29.96,South,186,0.0,1.0,76,0.00,,,0.00,meteohub,2013-06-27 02:51:00,
2013-06-26 22:56:00,83.8,75.4,29.96,South,186,0.0,1.0,76,0.00,,,0.00,meteohub,2013-06-27 02:56:00,
2013-06-26 23:01:00,83.7,75.2,29.96,South,186,0.0,1.0,76,0.00,,,0.00,meteohub,2013-06-27 03:01:00,
2013-06-26 23:06:00,83.5,75.6,29.96,South,186,0.0,0.0,77,0.00,,,0.00,meteohub,2013-06-27 03:06:00,
2013-06-26 23:11:00,83.1,75.6,29.97,South,186,0.0,3.0,78,0.00,,,0.00,meteohub,2013-06-27 03:11:00,
2013-06-26 23:16:00,82.9,75.7,29.97,South,186,0.0,3.0,79,0.00,,,0.00,meteohub,2013-06-27 03:16:00,
2013-06-26 23:21:00,82.9,75.7,29.97,South,186,0.0,3.0,79,0.00,,,0.00,meteohub,2013-06-27 03:21:00,
2013-06-26 23:26:00,82.8,75.9,29.97,South,186,0.0,2.0,80,0.00,,,0.00,meteohub,2013-06-27 03:26:00,
2013-06-26 23:31:00,82.6,75.7,29.98,South,186,0.0,1.0,80,0.00,,,0.00,meteohub,2013-06-27 03:31:00,
2013-06-26 23:36:00,82.0,75.6,29.97,South,186,0.0,3.0,81,0.00,,,0.00,meteohub,2013-06-27 03:36:00,
2013-06-26 23:41:00,81.9,75.7,29.98,South,184,0.0,5.0,82,0.00,,,0.00,meteohub,2013-06-27 03:41:00,
2013-06-26 23:46:00,81.7,75.6,29.98,South,184,0.0,5.0,82,0.00,,,0.00,meteohub,2013-06-27 03:46:00,
2013-06-26 23:51:00,81.7,75.6,29.98,South,184,0.0,5.0,82,0.00,,,0.00,meteohub,2013-06-27 03:51:00,
2013-06-26 23:56:00,81.5,75.9,29.98,South,186,0.0,1.0,83,0.00,,,0.00,meteohub,2013-06-27 03:56:00,